Simultaneous Nadir Overpasses (SNOs) Predictions

Prediction of SNOs between METOP-B and NOAA-19 Satellite Orbit:

Table of predicted SNOs for the next 14.0 days since TLE Epoch: 6/17/2023
Index Date (METOP-B) Time (METOP-B) Lat,Lon (METOP-B) SZA (METOP-B ) Date (NOAA-19) Time (NOAA-19) Lat,Lon (NOAA-19) SZA (NOAA-19 ) Distance(km) Time Diff (sec)
1 06/24/2023 08:28:41 80.90, 86.70 59.05 06/24/2023 08:27:30 80.91, 86.78 59.03 1.41 71
2 06/24/2023 09:19:22 -80.91,-105.89 120.94 06/24/2023 09:18:26 -80.91,-106.07 120.98 3.19 56
3 06/24/2023 10:10:02 80.91, 61.56 59.08 06/24/2023 10:09:28 80.91, 61.68 59.08 2.12 34
4 06/24/2023 11:00:43 -80.92,-131.03 120.91 06/24/2023 11:00:24 -80.91,-131.17 120.94 2.67 19
5 06/24/2023 11:51:24 80.91, 36.05 59.06 06/24/2023 11:51:27 80.91, 36.20 59.08 2.67 3
6 06/24/2023 12:42:05 -80.91,-156.53 120.93 06/24/2023 12:42:23 -80.91,-156.65 120.94 2.13 18
7 06/24/2023 13:32:45 80.92, 10.91 59.09 06/24/2023 13:33:26 80.91, 10.72 59.08 3.27 41



Historial Predications of SNOs between METOP-B and NOAA-19
